Printer-friendly version

IAU Minor Planet Center

Minor Planet Center

MPEC 2006-J28 : 2006 JN6

The following Minor Planet Electronic Circular may be linked-to from your own Web pages, but must not otherwise be redistributed electronically.


Read MPEC 2006-J27 Read MPEC 2006-J29


M.P.E.C. 2006-J28                                Issued 2006 May 6, 10:16 UT

     The Minor Planet Electronic Circulars contain information on unusual
         minor planets and routine data on comets.  They are published
   on behalf of Commission 20 of the International Astronomical Union by the
          Minor Planet Center, Smithsonian Astrophysical Observatory,
                          Cambridge, MA 02138, U.S.A.

                  Supported in part by the Brinson Foundation
                  Supported in part by the TABASGO Foundation
             Prepared using the Tamkin Foundation Computer Network

                              MPC@CFA.HARVARD.EDU
          URL http://cfa-www.harvard.edu/iau/mpc.html  ISSN 1523-6714

                                   2006 JN6

Observations:
     K06J06N* C2006 05 05.57019 13 59 44.88 -38 37 22.9          18.7 V EJ028E12
     K06J06N  C2006 05 05.58479 13 59 45.81 -38 36 34.3          18.5 V EJ028E12
     K06J06N  C2006 05 05.59941 13 59 46.68 -38 35 46.1          18.7 V EJ028E12
     K06J06N  C2006 05 05.67054 13 59 51.25 -38 31 47.9          18.5 V EJ028E12
     K06J06N  C2006 05 05.67292 13 59 51.39 -38 31 40.0          18.6 V EJ028E12
     K06J06N  C2006 05 05.67528 13 59 51.57 -38 31 32.1          18.3 V EJ028E12
     K06J06N  C2006 05 05.68461 13 59 52.11 -38 30 47.0          18.0 R EJ028474
     K06J06N  C2006 05 05.68669 13 59 52.26 -38 30 39.9          18.1 R EJ028474
     K06J06N  C2006 05 05.69248 13 59 52.70 -38 30 20.4          18.0 R EJ028474
     K06J06N  C2006 05 06.30916 14 00 43.69 -37 56 49.0          18.0 R EJ028651
     K06J06N  C2006 05 06.31027 14 00 43.70 -37 56 44.5          17.9 R EJ028651
     K06J06N  C2006 05 06.31138 14 00 43.77 -37 56 41.4          17.9 R EJ028651

Observer details:
474 Mount John Observatory, Lake Tekapo.  Observer A. C. Gilmore.  0.6-m f/6.4
    reflector + CCD.
651 Grasslands Observatory, Tucson.  Observer J. E. McGaha.  0.62-m f/5.1
    Newtonian reflector + CCD.
E12 Siding Spring Survey.  Observer G. J. Garradd.  Measurers E. C. Beshore,
    E. J. Christensen, G. J. Garradd, A. R. Gibbs, A. D. Grauer, R. E. Hill,
    R. A. Kowalski, S. M. Larson, R. H. McNaught.  0.5-m Uppsala Schmidt + CCD.

Orbital elements:
2006 JN6                                                 Earth MOID = 0.1647 AU
Epoch 2006 Mar. 6.0 TT = JDT 2453800.5                  MPC
M 314.88721              (2000.0)            P               Q
n   0.44321847     Peri.   20.48380     -0.19447270     +0.94756847
a   1.7036909      Node   239.08466     -0.93608953     -0.25652404
e   0.3160977      Incl.   17.19072     -0.29311560     +0.19055031
P   2.22           H   20.2           G   0.15           U   9
Residuals in seconds of arc
060505 E12  0.2-  0.1-    060505 E12  0.3-  0.3-    060505 474  0.3+  0.1+
060505 E12  0.2+  0.3+    060505 E12  0.0   0.4-    060506 651  0.5+  0.2-
060505 E12  0.2-  0.1+    060505 474  0.2+  0.2+    060506 651  0.3-  0.5+
060505 E12  0.1-  0.1-    060505 474  0.2+  0.3+    060506 651  0.3-  0.2-

Ephemeris:
2006 JN6                 a,e,i = 1.70, 0.32, 17                  q = 1.1652
Date    TT    R. A. (2000) Decl.     Delta      r     Elong.  Phase     V
2006 05 05    13 59.01   -39 08.0    0.232    1.222   154.7    20.7    18.5
2006 05 15    14 14.38   -27 59.2    0.197    1.199   161.1    15.8    17.9
2006 05 25    14 34.35   -12 56.7    0.181    1.181   156.7    19.9    17.8
2006 06 04    14 57.70   +02 31.9    0.187    1.170   143.5    31.1    18.2
2006 06 14    15 22.80   +14 36.6    0.211    1.165   131.3    40.9    18.8
2006 06 24    15 48.03   +22 18.9    0.245    1.167   122.7    47.1    19.3
2006 07 04    16 12.76   +26 28.6    0.286    1.176   117.5    50.1    19.7
2006 07 14    16 36.84   +28 11.0    0.330    1.192   114.5    50.9    20.1
2006 07 24    17 00.29   +28 11.9    0.375    1.213   113.1    50.4    20.4
2006 08 03    17 23.50   +27 01.3    0.422    1.240   112.6    49.1    20.6
2006 08 13    17 46.76   +25 02.2    0.471    1.271   112.6    47.4    20.9
2006 08 23    18 10.17   +22 30.8    0.524    1.306   112.7    45.6    21.1
2006 09 02    18 33.93   +19 41.7    0.582    1.344   112.6    43.9    21.4
2006 09 12    18 58.00   +16 48.7    0.645    1.385   112.1    42.4    21.6
2006 09 22    19 22.29   +14 02.0    0.717    1.427   110.9    41.1    21.9

Timothy B. Spahr             (C) Copyright 2006 MPC           M.P.E.C. 2006-J28

Read MPEC 2006-J27 Read MPEC 2006-J29


Our Web policy. Index to the CBAT/MPC/ICQ pages.


Valid HTML 4.01!